Regional Weather Roundup
Issued by NWS Columbia, SC

Home | Current Version | Previous Version | Text Only | Print | Product List | Glossary On
Versions: 1 2 3 4 5 6 7 8 9 10 11 12 13 14 15 16 17 18 19 20 21 22 23 24 25 26 27 28 29 30 31 32 33 34 35 36 37 38 39 40 41 42 43 44 45 46 47 48 49 50
000
ASUS42 KCAE 301710
RWRCAE
REGIONAL WEATHER ROUNDUP
NATIONAL WEATHER SERVICE COLUMBIA SC
100 PM EDT FRI SEP 30 2016

NOTE: "FAIR" INDICATES FEW OR NO CLOUDS BELOW 12,000 FEET WITH NO
SIGNIFICANT WEATHER AND/OR OBSTRUCTIONS TO VISIBILITY.

NOT ALL STATIONS ARE QUALITY CONTROLLED BY THE NATIONAL
WEATHER SERVICE. USE DATA WITH CAUTION...ESPECIALLY
DEWPOINT OBSERVATIONS.

SCZ001>056-GAZ040-063>065-077-301800-
...UPSTATE SOUTH CAROLINA...

CITY           SKY/WX    TMP DP  RH WIND       PRES   REMARKS
ANDERSON       SUNNY     73  47  39 SW12      30.02F
LIBERTY        SUNNY     75  46  35 SW6       30.01S
SPARTANBURG    SUNNY     73  41  31 SW7       30.00F
CLEMSON        SUNNY     74  46  36 W9        30.03S
GREENVILLE     SUNNY     76  44  32 S12       30.02S
GREENWOOD      SUNNY     74  46  36 SW8G17    30.03S
GREER          SUNNY     75  44  33 S12       30.00S
ROCK HILL      SUNNY     78  49  35 S9        30.01F
CHESTER        SUNNY     77  43  29 S9        30.01F
LAURENS        SUNNY     73  46  38 SW6       30.01F


...CENTRAL SOUTH CAROLINA...

CITY           SKY/WX    TMP DP  RH WIND       PRES   REMARKS
COLUMBIA APT   SUNNY     81  49  32 SW9       30.00F
COLUMBIA OWENS SUNNY     82  49  31 VRB6      30.01F
MCENTIRE ANGB  MOSUNNY   82  55  40 S5        30.01F
ORANGEBURG     SUNNY     80  52  37 SW8       30.01F
SUMTER SHAW    SUNNY     83  55  38 SW8       29.99S
NEWBERRY       SUNNY     75  50  41 SW12G17   30.04F
AIKEN          FAIR      77  48  36 SW8       30.05F
MANNING        FAIR      81  61  50 S3        30.00F
LANCASTER      SUNNY     79  52  38 S8        30.01F
WINNSBORO      SUNNY     77  50  38 SW7       30.01F


...EASTERN AND COASTAL SOUTH CAROLINA...

CITY           SKY/WX    TMP DP  RH WIND       PRES   REMARKS
MYRTLE BEACH   MOSUNNY   84  70  61 S12       30.01F
N MYRTLE BCH   MOSUNNY   82  72  71 S9        29.99F
CONWAY         FAIR      82  73  74 SE5       29.99F
MARION         FAIR      81  68  65 S5        30.00F
HARTSVILLE     FAIR      82  59  44 SW6       30.00S
FLORENCE       MOSUNNY   84  67  56 VRB3      30.00F
DARLINGTON     MOSUNNY   82  66  58 CALM      30.00F
CHARLESTON APT MOSUNNY   86  64  47 W6        30.00F
MOUNT PLEASANT FAIR      86  64  48 W9        30.00F
WALTERBORO     SUNNY     84  55  37 SW6       30.02F
BEAUFORT       MOSUNNY   84  58  40 W5        30.01F


...EASTERN GEORGIA...

CITY           SKY/WX    TMP DP  RH WIND       PRES   REMARKS
AUGUSTA BUSH F SUNNY     79  49  34 SW10      30.01F
AUGUSTA DANIEL SUNNY     77  45  32 S8        30.03F
THOMSON        SUNNY     80  49  34 W9        30.06F
WASHINGTON     FAIR      77  50  38 SW8       30.03S
CLAXTON        FAIR      80  56  42 SW8       30.04F
STATESBORO     SUNNY     80  55  42 W6        30.03F
SAVANNAH       MOSUNNY   84  56  38 W5        30.03F


...SOUTHERN NORTH CAROLINA...

CITY           SKY/WX    TMP DP  RH WIND       PRES   REMARKS
CHARLOTTE      MOSUNNY   79  52  38 S12       30.01F
MONROE         SUNNY     81  53  37 SW14G20   29.99F
WADESBORO      MOSUNNY   82  63  52 S7        30.00S HAZE
RUTHERFORDTON  SUNNY     72  51  46 SE5       30.02S
ASHEVILLE      SUNNY     68  45  43 VRB5      30.04S

$$



USA.gov is the U.S. government's official web portal to all federal, state and local government web resources and services.